Location: Saratoga Springs
(43.0831°N, 73.7850°W)
Time: 11:47:01
(UTC-04:00)

Vanguard 1 Rocket - Pass Details

Date: 19 April 2024
Orbit: 651 x 4220 km, 34.3° (Epoch: 19 May)

Event Time Altitude Azimuth Distance (km) Brightness Sun altitude
Exits shadow 03:04:45 10° 174° (S) 6,909 11.4 -27.9°
Drops below altitude 10° 03:04:55 10° 174° (S) 6,935 11.5 -27.9°
Sets 03:13:26 0° 161° (SSE) 8,328 12.0 -26.9°
